Flag for Russia Weather past 2 weeks in Chelyabinsk, Russia

Now
52 °F

Fog.


Feels Like: 49 °F
Forecast: 47 / 62 °F
Wind: 8 mph from South

Location: Chelyabinsk-Balandino

Current Time: Aug 28, 2015 at 7:14:39 AM

Latest Report: Aug 28, 2015 at 6:30 AM


Visibility: 3 mi

Pressure: 29.95 "Hg

Humidity: 94%

Dew point: 50 °F

Location of ChelyabinskLocation

Historic Weather in Chelyabinsk — Graph

°F

Chelyabinsk temperature yesterday

Maximum temperature yesterday: 61 °F (at 3:00 PM)
Minimum temperature yesterday: 48 °F (at 12:00 AM)
Average temperature yesterday: 53 °F

Past Weeks' High & Low Weather Summary

 TemperatureHumidityPressure
High77 °F (Aug 14, 5:30 PM)100% (Aug 17, 12:30 AM)30.12 "Hg (Aug 17, 12:30 AM)
Low36 °F (Aug 24, 2:00 AM)30% (Aug 13, 5:00 PM)29.39 "Hg (Aug 18, 1:00 AM)
Average56 °F70%29.85 "Hg
* Reported Aug 13 5:00 AM — Aug 28 5:30 AM, Chelyabinsk, Weather by CustomWeather, © 2015

Note: Actual official high and low records may vary slightly from our data, if they occured in-between our weather recording intervals... More about our weather records

Advertising

Chelyabinsk weather history for previous 24 hours

 ConditionsComfort  
Time TempWeatherWind HumidityBarometerVisibility
5:30 AM
Fri, Aug 28
50 °FFog.6 mph100%29.95 "Hg3 mi
5:00 AM52 °FFog.3 mph94%29.95 "Hg3 mi
4:30 AM52 °FFog.6 mph94%29.95 "Hg3 mi
4:00 AM52 °FFog.1 mph94%29.98 "Hg2 mi
3:30 AM52 °FSprinkles. Fog.1 mph88%29.98 "Hg2 mi
3:00 AM54 °FFog.3 mph82%29.98 "Hg3 mi
2:30 AM54 °FFog.6 mph82%29.98 "Hg3 mi
2:00 AM54 °FFog.6 mph82%29.98 "Hg3 mi
1:30 AM54 °FFog.6 mph82%29.98 "Hg3 mi
1:00 AM54 °FFog.8 mph82%29.98 "Hg3 mi
12:30 AM54 °FSprinkles. Fog.8 mph82%29.98 "Hg3 mi
12:00 AM54 °FSprinkles. Passing clouds.6 mph82%30.01 "HgN/A
11:30 PM
Thu, Aug 27
52 °FPassing clouds.3 mph82%30.01 "HgN/A
11:00 PM52 °FPassing clouds.3 mph77%30.01 "HgN/A
10:30 PM52 °FPassing clouds.6 mph77%30.01 "HgN/A
10:00 PM54 °FPassing clouds.6 mph72%30.01 "HgN/A
9:30 PM54 °FScattered clouds.8 mph72%30.01 "HgN/A
9:00 PM54 °FScattered clouds.6 mph72%30.01 "HgN/A
8:30 PM54 °FScattered clouds.6 mph72%30.01 "HgN/A
8:00 PM54 °FScattered clouds.6 mph72%30.01 "HgN/A
7:30 PM54 °FScattered clouds.3 mph72%29.98 "HgN/A
7:00 PM57 °FScattered clouds.3 mph63%29.98 "HgN/A
6:30 PM57 °FScattered clouds.3 mph63%29.98 "HgN/A
6:00 PM57 °FScattered clouds.3 mph67%29.98 "HgN/A
5:30 PM59 °FScattered clouds.6 mph59%29.98 "HgN/A
5:00 PM57 °FScattered clouds.8 mph63%29.98 "HgN/A
4:30 PM57 °FScattered clouds.8 mph59%29.98 "HgN/A
4:00 PM55 °FScattered clouds.10 mph63%29.98 "HgN/A
3:30 PM55 °FScattered clouds.13 mph59%29.98 "HgN/A
3:00 PM61 °FScattered clouds.15 mph52%29.95 "HgN/A
2:30 PM57 °FScattered clouds.15 mph59%29.95 "HgN/A
2:00 PM57 °FScattered clouds.15 mph63%29.95 "HgN/A
1:30 PM55 °FScattered clouds.15 mph72%29.95 "HgN/A
1:00 PM55 °FScattered clouds.15 mph72%29.95 "HgN/A
12:30 PM54 °FScattered clouds.13 mph82%29.95 "HgN/A
12:00 PM52 °FSprinkles. Scattered clouds.13 mph82%29.95 "HgN/A
11:30 AM52 °FScattered clouds.13 mph88%29.95 "HgN/A
11:00 AM54 °FScattered clouds.13 mph82%29.95 "HgN/A
10:30 AM52 °FSprinkles. Scattered clouds.10 mph88%29.95 "HgN/A
10:00 AM52 °FSprinkles. Scattered clouds.10 mph82%29.95 "Hg3 mi
9:30 AM54 °FScattered clouds.10 mph77%29.95 "HgN/A
9:00 AM52 °FScattered clouds.8 mph77%29.95 "HgN/A
8:30 AM52 °FScattered clouds.10 mph77%29.95 "HgN/A
7:30 AM50 °FPassing clouds.10 mph82%29.95 "HgN/A
7:00 AM50 °FPassing clouds.13 mph82%29.95 "HgN/A
Weather by CustomWeather, © 2015

See weather overviewHow to use our weather pages